DW0110 Weather Reports


time (UTC)temp
F
wind
direction
speed
knots
gust
knots
rain 1hr
in
rain 24hr
in
rain mn
in
humidity
%
barometer
mb
20260503224335 56 217 0.0 4.3 0.00 0.00 0.00 46 1008.6
20260503223829 56 217 0.0 3.5 0.00 0.00 0.00 46 1008.6
20260503223345 56 217 0.0 3.5 0.00 0.00 0.00 47 1008.5
20260503222838 56 217 0.0 0.0 0.00 0.00 0.00 48 1008.4
20260503222332 56 217 0.0 1.7 0.00 0.00 0.00 48 1008.4
20260503221828 56 217 0.0 3.5 0.00 0.00 0.00 46 1008.5
20260503221337 56 217 0.0 3.5 0.00 0.00 0.00 47 1008.5
20260503220829 57 217 0.0 5.2 0.00 0.00 0.00 47 1008.8
20260503220323 57 217 0.0 5.2 0.00 0.00 0.00 46 1008.7
20260503215838 57 217 0.0 7.0 0.00 0.00 0.00 46 1008.8
20260503215330 57 217 2.6 7.0 0.00 0.00 0.00 45 1008.9
20260503214825 57 217 0.0 7.0 0.00 0.00 0.00 45 1008.8
20260503214338 57 217 0.0 1.7 0.00 0.00 0.00 46 1008.7
20260503213828 57 217 0.0 7.8 0.00 0.00 0.00 45 1008.8
20260503213323 57 217 2.6 8.7 0.00 0.00 0.00 43 1008.8
20260503212858 57 216 0.9 8.7 0.00 0.00 0.00 45 1008.7
20260503212329 57 216 0.9 5.2 0.00 0.00 0.00 44 1008.5
20260503211823 57 216 0.9 5.2 0.00 0.00 0.00 44 1008.6
20260503211336 57 216 0.9 6.1 0.00 0.00 0.00 42 1008.5
20260503210850 58 216 0.9 8.7 0.00 0.00 0.00 43 1008.6
20260503210322 58 216 0.9 8.7 0.00 0.00 0.00 42 1008.6
20260503205836 58 216 1.7 7.0 0.00 0.00 0.00 42 1008.6
20260503205332 58 215 0.9 6.1 0.00 0.00 0.00 44 1008.6
20260503204825 57 215 0.0 4.3 0.00 0.00 0.00 45 1008.6
20260503204319 57 215 0.0 1.7 0.00 0.00 0.00 42 1008.8
20260503203835 57 215 0.0 4.3 0.00 0.00 0.00 44 1008.8
20260503203329 58 215 0.9 7.8 0.00 0.00 0.00 44 1008.9
20260503202826 57 215 2.6 7.8 0.00 0.00 0.00 43 1008.9
20260503202322 57 215 0.0 7.0 0.00 0.00 0.00 45 1009.0
20260503201839 57 215 0.0 7.0 0.00 0.00 0.00 44 1009.1
20260503201333 57 215 0.0 4.3 0.00 0.00 0.00 43 1009.1
20260503200826 57 215 0.0 4.3 0.00 0.00 0.00 44 1009.2
20260503200342 57 215 0.0 3.5 0.00 0.00 0.00 46 1009.4
20260503195835 56 215 0.0 5.2 0.00 0.00 0.00 46 1009.4
20260503195329 56 215 0.0 5.2 0.00 0.00 0.00 45 1009.5
20260503194822 56 215 0.0 0.9 0.00 0.00 0.00 45 1009.6
20260503194336 56 215 0.0 4.3 0.00 0.00 0.00 45 1009.6
20260503193830 56 215 0.0 4.3 0.00 0.00 0.00 43 1009.8
20260503193323 55 215 0.9 4.3 0.00 0.00 0.00 46 1009.8
20260503192835 55 215 0.0 3.5 0.00 0.00 0.00 45 1010.0
20260503192330 55 215 0.0 7.0 0.00 0.00 0.00 43 1010.2
20260503191846 55 215 1.7 7.0 0.00 0.00 0.00 42 1010.3
20260503191338 56 215 0.0 7.8 0.00 0.00 0.00 43 1010.3
20260503190831 56 215 0.9 7.8 0.00 0.00 0.00 44 1010.4
20260503190329 55 215 0.0 4.3 0.00 0.00 0.00 43 1010.4
20260503185844 55 215 0.9 4.3 0.00 0.00 0.00 45 1010.4
20260503185337 55 215 0.0 7.0 0.00 0.00 0.00 44 1010.5
20260503184828 55 215 0.0 8.7 0.00 0.00 0.00 43 1010.6
20260503184320 55 215 1.7 6.1 0.00 0.00 0.00 43 1010.7
20260503183835 55 215 0.0 3.5 0.00 0.00 0.00 45 1010.8
20260503183329 54 215 0.0 11.3 0.00 0.00 0.00 47 1010.7
20260503182844 54 215 2.6 11.3 0.00 0.00 0.00 44 1010.9
20260503182335 54 214 2.6 8.7 0.00 0.00 0.00 45 1010.9
20260503181826 54 213 1.7 6.1 0.00 0.00 0.00 47 1010.9
20260503181343 54 213 1.7 6.1 0.00 0.00 0.00 49 1010.9
20260503180838 54 213 0.0 6.1 0.00 0.00 0.00 49 1011.0
20260503180332 54 213 0.9 6.1 0.00 0.00 0.00 49 1011.0
20260503175826 54 213 0.0 6.1 0.00 0.00 0.00 49 1011.0
20260503175319 54 213 1.7 10.4 0.00 0.00 0.00 50 1010.9
20260503174836 54 213 0.0 10.4 0.00 0.00 0.00 50 1011.1
20260503174330 54 213 2.6 9.6 0.00 0.00 0.00 50 1011.1
20260503173826 54 213 1.7 6.1 0.00 0.00 0.00 49 1011.0
20260503173319 54 213 0.9 6.1 0.00 0.00 0.00 50 1011.1
20260503172836 54 213 0.0 7.0 0.00 0.00 0.00 50 1011.2
20260503172329 55 213 0.9 10.4 0.00 0.00 0.00 52 1011.3
20260503171823 54 213 0.0 10.4 0.00 0.00 0.00 51 1011.2
20260503171339 54 211 0.9 9.6 0.00 0.00 0.00 52 1011.2
20260503170851 54 211 0.0 7.0 0.00 0.00 0.00 53 1011.3
20260503170344 54 211 0.0 7.0 0.00 0.00 0.00 52 1011.5
20260503150838 49 211 0.0 0.0 0.00 0.00 0.00 58 1012.7
20260503150335 49 211 0.0 3.5 0.00 0.00 0.00 60 1012.8
20260503131325 44 211 0.0 0.0 0.00 0.00 0.00 65 1013.8
20260503130840 43 211 0.0 0.0 0.00 0.00 0.00 66 1013.8
20260503130350 43 211 0.0 0.0 0.00 0.00 0.00 67 1013.8
20260503110828 36 211 0.0 0.0 0.00 0.00 0.00 88 1013.6
20260503110323 36 211 0.0 0.0 0.00 0.00 0.00 88 1013.5
20260503090358 37 211 0.0 0.0 0.00 0.00 0.00 86 1013.1
20260503081327 37 211 0.0 0.0 0.00 0.00 0.00 84 1013.3
20260503080821 37 211 0.0 0.0 0.00 0.00 0.00 84 1013.3
20260503080335 37 211 0.0 0.0 0.00 0.00 0.00 84 1013.3
20260503072818 38 211 0.0 0.0 0.00 0.00 0.00 83 1013.3
20260503072331 38 211 0.0 0.0 0.00 0.00 0.00 83 1013.3
20260503071828 38 211 0.0 0.0 0.00 0.00 0.00 82 1013.3
20260503071321 38 211 0.0 0.0 0.00 0.00 0.00 82 1013.3
20260503070857 39 211 0.0 0.0 0.00 0.00 0.00 82 1013.3
20260503070330 39 211 0.0 0.0 0.00 0.00 0.00 82 1013.3
20260503060320 40 211 0.0 0.0 0.00 0.00 0.00 80 1013.5
20260503054843 41 211 0.0 0.0 0.00 0.00 0.00 79 1013.4
20260503054336 41 211 0.0 0.0 0.00 0.00 0.00 79 1013.6
20260503053852 41 211 0.0 0.0 0.00 0.00 0.00 79 1013.6
20260503053324 41 211 0.0 0.0 0.00 0.00 0.00 79 1013.7
20260503052818 41 211 0.0 0.0 0.00 0.00 0.00 79 1013.7
20260503052335 41 211 0.0 0.0 0.00 0.00 0.00 79 1013.7
20260503051828 41 211 0.0 0.0 0.00 0.00 0.00 79 1013.8
20260503051339 41 211 0.0 0.0 0.00 0.00 0.00 79 1013.9
20260503050835 41 211 0.0 0.0 0.00 0.00 0.00 78 1013.9
20260503050351 41 211 0.0 0.0 0.00 0.00 0.00 79 1013.9
20260503045824 41 211 0.0 0.0 0.00 0.00 0.00 79 1013.9
20260503045335 41 211 0.0 0.0 0.00 0.00 0.00 79 1013.9
20260503044849 41 211 0.0 0.0 0.00 0.00 0.00 78 1014.0
20260503044338 41 211 0.0 0.0 0.00 0.00 0.00 78 1013.9
20260503043830 41 211 0.0 0.0 0.00 0.00 0.00 79 1014.0
20260503043322 41 211 0.0 0.0 0.00 0.00 0.00 78 1014.0
20260503042837 41 211 0.0 0.0 0.00 0.00 0.00 78 1014.1
20260503042351 41 211 0.0 0.0 0.00 0.00 0.00 78 1014.1
20260503041846 41 211 0.0 0.0 0.00 0.00 0.00 78 1014.1
20260503041341 41 211 0.0 0.0 0.00 0.00 0.00 78 1014.1
20260503040857 41 211 0.0 0.0 0.00 0.00 0.00 78 1014.1
20260503040327 41 211 0.0 0.0 0.00 0.00 0.00 78 1014.1
20260503035818 41 211 0.0 0.0 0.00 0.00 0.00 78 1014.2
20260503035336 41 211 0.0 0.0 0.00 0.00 0.00 78 1014.2
20260503034829 41 211 0.0 0.0 0.00 0.00 0.00 78 1014.1
20260503034326 41 211 0.0 0.0 0.00 0.00 0.00 78 1014.2
20260503033819 41 211 0.0 0.0 0.00 0.00 0.00 78 1014.2
20260503033354 41 211 0.0 0.0 0.00 0.00 0.00 78 1014.2
20260503032826 41 211 0.0 0.0 0.00 0.00 0.00 78 1014.3
20260503032321 41 211 0.0 0.0 0.00 0.00 0.00 78 1014.3
20260503031835 41 211 0.0 0.0 0.00 0.00 0.00 78 1014.2
20260503031327 41 211 0.0 0.0 0.00 0.00 0.00 79 1014.2
20260503030839 41 211 0.0 0.0 0.00 0.00 0.00 78 1014.3
20260503030327 41 211 0.0 0.0 0.00 0.00 0.00 79 1014.3
20260503025821 41 211 0.0 0.0 0.00 0.00 0.00 79 1014.3
20260503025335 41 211 0.0 0.0 0.00 0.00 0.00 78 1014.3
20260503024829 42 211 0.0 0.0 0.00 0.00 0.00 78 1014.4
20260503024345 42 211 0.0 0.0 0.00 0.00 0.00 78 1014.4
20260503023859 42 211 0.0 0.0 0.00 0.00 0.00 78 1014.5
20260503023331 42 211 0.0 0.0 0.00 0.00 0.00 78 1014.5
20260503022824 42 211 0.0 0.0 0.00 0.00 0.00 78 1014.5
20260503022339 42 211 0.0 0.0 0.00 0.00 0.00 78 1014.6
20260503021832 42 211 0.0 0.0 0.00 0.00 0.00 78 1014.6
20260503021330 42 211 0.0 0.0 0.00 0.00 0.00 78 1014.6
20260503020826 42 211 0.0 0.0 0.00 0.00 0.00 78 1014.7
20260503020320 42 211 0.0 0.0 0.00 0.00 0.00 78 1014.7
20260503015818 42 211 0.0 0.0 0.00 0.00 0.00 78 1014.6
20260503015336 42 211 0.0 0.0 0.00 0.00 0.00 77 1014.6
20260503014854 42 211 0.0 0.0 0.00 0.00 0.00 77 1014.6
20260503014326 42 211 0.0 0.0 0.00 0.00 0.00 77 1014.6
20260503013823 42 211 0.0 0.0 0.00 0.00 0.00 77 1014.6
20260503013337 42 211 0.0 0.0 0.00 0.00 0.00 77 1014.5
20260503012852 42 211 0.0 0.0 0.00 0.00 0.00 77 1014.6
20260503012325 42 211 0.0 0.0 0.00 0.00 0.00 78 1014.5
20260503011837 42 211 0.0 0.0 0.00 0.00 0.00 78 1014.5
20260503011327 42 211 0.0 0.0 0.00 0.00 0.00 78 1014.5
20260503010900 42 211 0.0 0.0 0.00 0.00 0.00 78 1014.5
20260503010331 42 211 0.0 0.0 0.00 0.00 0.00 78 1014.5
20260503005845 42 211 0.0 0.0 0.00 0.00 0.00 77 1014.5
20260503005358 42 211 0.0 0.0 0.00 0.00 0.00 78 1014.4
20260503004827 42 211 0.0 0.0 0.00 0.00 0.00 77 1014.4
20260503004401 42 211 0.0 0.0 0.00 0.00 0.00 77 1014.3
20260503003835 42 211 0.0 0.0 0.00 0.00 0.00 77 1014.3
20260503003328 42 211 0.0 0.0 0.00 0.00 0.00 77 1014.2
20260503002822 42 211 0.0 0.0 0.00 0.00 0.00 77 1014.2
20260503002336 42 211 0.0 0.0 0.00 0.00 0.00 77 1014.2
20260503001827 42 211 0.0 0.0 0.00 0.00 0.00 77 1014.2
20260503001321 42 211 0.0 0.0 0.00 0.00 0.00 77 1014.1
20260503000857 42 211 0.0 0.0 0.00 0.00 0.00 77 1014.1
20260503000330 42 211 0.0 0.0 0.00 0.00 0.00 78 1014.0
20260502235823 42 211 0.0 0.0 0.00 0.00 0.00 78 1014.1
20260502235317 42 211 0.0 0.0 0.00 0.00 0.00 79 1014.0
20260502234833 42 211 0.0 0.0 0.00 0.00 0.00 79 1014.1
20260502234346 42 211 0.0 0.0 0.00 0.00 0.00 78 1014.0
20260502233836 42 211 0.0 0.0 0.00 0.00 0.00 77 1013.9
20260502233332 42 211 0.0 0.0 0.00 0.00 0.00 77 1014.0
20260502232844 42 211 0.0 0.0 0.00 0.00 0.00 78 1013.9
20260502232337 42 211 0.0 0.0 0.00 0.00 0.00 79 1013.9
20260502231853 42 211 0.0 4.3 0.00 0.00 0.00 80 1013.9
20260502231325 42 211 0.9 4.3 0.00 0.00 0.00 81 1013.8
20260502230819 42 211 0.0 0.9 0.00 0.00 0.00 82 1013.9
20260502230335 42 211 0.0 4.3 0.00 0.00 0.00 84 1013.8
20260502225829 42 211 0.9 4.3 0.00 0.00 0.00 87 1013.8
20260502225344 43 211 0.0 0.0 0.00 0.00 0.00 88 1013.8
20260502224839 43 211 0.0 0.0 0.00 0.00 0.00 88 1013.7